CW3786 Weather Reports


time (UTC)temp
F
wind
direction
speed
knots
gust
knots
rain 1hr
in
rain 24hr
in
rain mn
in
humidity
%
barometer
mb
20260508033629 60 229 0.0 0.0 0.00 0.00 0.00 76 1009.0
20260508033104 60 229 0.0 0.0 0.00 0.00 0.00 76 1009.0
20260508032601 60 229 0.0 1.7 0.00 0.00 0.00 76 1008.8
20260508032056 60 229 0.0 1.7 0.00 0.00 0.00 77 1008.8
20260508031552 60 210 0.0 1.7 0.00 0.00 0.00 78 1008.8
20260508031107 60 210 0.0 1.7 0.00 0.00 0.00 79 1008.7
20260508030607 60 207 0.0 0.0 0.00 0.00 0.00 79 1008.7
20260508030103 60 207 0.0 0.0 0.00 0.00 0.00 79 1008.7
20260508025557 60 207 0.0 0.0 0.00 0.00 0.00 78 1008.6
20260508025052 61 207 0.0 0.0 0.00 0.00 0.00 78 1008.6
20260508024628 61 207 0.0 0.0 0.00 0.00 0.00 78 1008.6
20260508024059 61 205 0.0 0.9 0.00 0.00 0.00 77 1008.3
20260508023714 61 205 0.0 1.7 0.00 0.00 0.00 76 1008.3
20260508023059 62 210 0.0 1.7 0.00 0.00 0.00 75 1008.3
20260508022551 63 218 0.0 1.7 0.00 0.00 0.00 74 1008.2
20260508022106 63 219 0.0 1.7 0.00 0.00 0.00 72 1008.2
20260508021602 65 229 0.0 1.7 0.00 0.00 0.00 68 1008.2
20260508021057 65 266 0.0 2.6 0.00 0.00 0.00 66 1008.2
20260508020552 66 266 0.0 2.6 0.00 0.00 0.00 63 1008.2
20260508020107 66 259 0.0 1.7 0.00 0.00 0.00 62 1008.2
20260508015617 67 259 0.0 1.7 0.00 0.00 0.00 61 1008.2
20260508015108 68 259 0.0 2.6 0.00 0.00 0.00 60 1008.2
20260508014603 68 279 0.0 2.6 0.00 0.00 0.00 59 1008.2
20260508014058 68 314 0.0 0.0 0.00 0.00 0.00 60 1008.2
20260508013553 68 314 0.0 0.0 0.00 0.00 0.00 59 1008.2
20260508013109 69 314 0.0 1.7 0.00 0.00 0.00 59 1008.2
20260508012604 69 327 0.0 1.7 0.00 0.00 0.00 59 1008.1
20260508012103 69 215 0.9 1.7 0.00 0.00 0.00 58 1008.1
20260508011558 69 146 0.0 0.9 0.00 0.00 0.00 58 1008.1
20260508011051 69 229 0.0 0.9 0.00 0.00 0.00 58 1008.1
20260508010610 70 229 0.0 1.7 0.00 0.00 0.00 57 1008.1
20260508010122 70 229 0.9 1.7 0.00 0.00 0.00 55 1008.1
20260508005616 71 241 0.0 3.5 0.00 0.00 0.00 55 1008.1
20260508005105 71 242 0.9 3.5 0.00 0.00 0.00 55 1008.1
20260508004604 71 229 0.0 1.7 0.00 0.00 0.00 56 1008.1
20260508004059 72 229 0.0 3.5 0.00 0.00 0.00 55 1008.1
20260508003555 72 266 0.9 3.5 0.00 0.00 0.00 54 1008.1
20260508003054 73 258 0.0 1.7 0.00 0.00 0.00 54 1008.1
20260508002626 72 266 0.0 1.7 0.00 0.00 0.00 54 1008.1
20260508002104 72 267 0.0 2.6 0.00 0.00 0.00 54 1008.1
20260508001559 72 267 0.9 4.3 0.00 0.00 0.00 55 1008.1
20260508001114 72 168 1.7 4.3 0.00 0.00 0.00 55 1008.2
20260508000627 72 270 0.9 1.7 0.00 0.00 0.00 56 1008.2
20260508000153 72 269 0.0 0.0 0.00 0.00 0.00 58 1008.2
20260507235606 71 269 0.0 1.7 0.00 0.00 0.00 60 1008.2
20260507235049 70 259 0.0 1.7 0.00 0.00 0.00 62 1008.2
20260507234552 69 251 0.0 1.7 0.00 0.00 0.00 64 1008.2
20260507234051 69 241 0.0 2.6 0.00 0.00 0.00 63 1008.2
20260507233605 70 242 0.0 2.6 0.00 0.00 0.00 62 1008.2
20260507233104 71 196 0.9 2.6 0.00 0.00 0.00 61 1008.2
20260507232600 71 225 0.9 3.5 0.00 0.00 0.00 60 1008.2
20260507232054 72 246 0.0 4.3 0.00 0.00 0.00 60 1008.2
20260507231549 72 263 0.9 4.3 0.00 0.00 0.00 59 1008.2
20260507231107 72 254 0.9 4.3 0.00 0.00 0.00 59 1008.2
20260507230601 72 182 0.0 3.5 0.00 0.00 0.00 59 1008.2
20260507230153 72 162 0.0 1.7 0.00 0.00 0.00 59 1008.2
20260507225610 73 148 0.0 3.5 0.00 0.00 0.00 59 1008.2
20260507225115 72 310 0.9 3.5 0.00 0.00 0.00 60 1008.2
20260507224608 72 246 0.0 3.5 0.00 0.00 0.00 61 1008.2
20260507224129 71 242 0.9 4.3 0.00 0.00 0.00 61 1008.4
20260507223616 71 265 0.9 4.3 0.00 0.00 0.00 62 1008.4
20260507223050 70 213 0.9 3.5 0.00 0.00 0.00 62 1008.3
20260507222606 70 300 0.0 4.3 0.00 0.00 0.00 64 1008.6
20260507222100 70 240 0.9 5.2 0.00 0.00 0.00 63 1008.6
20260507221556 70 190 0.0 5.2 0.00 0.00 0.00 62 1008.6
20260507221051 71 259 1.7 4.3 0.00 0.00 0.00 60 1008.7
20260507220606 72 225 0.0 4.3 0.00 0.00 0.00 59 1008.7
20260507220101 72 240 0.0 3.5 0.00 0.00 0.00 60 1008.7
20260507215600 72 223 0.9 4.3 0.00 0.00 0.00 59 1008.7
20260507215056 73 218 0.0 4.3 0.00 0.00 0.00 60 1008.8
20260507214629 74 217 0.9 4.3 0.00 0.00 0.00 57 1008.8
20260507214132 75 191 0.0 4.3 0.00 0.00 0.00 55 1008.8
20260507213614 76 212 0.0 4.3 0.00 0.00 0.00 55 1008.8
20260507213121 75 208 0.0 2.6 0.00 0.00 0.00 56 1008.8
20260507212613 75 180 0.0 1.7 0.00 0.00 0.00 57 1008.8
20260507212126 74 180 0.0 1.7 0.00 0.00 0.00 59 1008.8
20260507211620 74 178 0.0 1.7 0.00 0.00 0.00 59 1008.8
20260507211115 73 178 0.0 2.6 0.00 0.00 0.00 59 1009.2
20260507210601 74 178 0.0 2.6 0.00 0.00 0.00 57 1009.2
20260507210208 74 178 0.0 4.3 0.00 0.00 0.00 57 1009.2
20260507205610 75 178 0.0 4.3 0.00 0.00 0.00 55 1009.2
20260507205051 76 177 0.0 3.5 0.00 0.00 0.00 54 1009.2
20260507204623 77 177 0.9 3.5 0.00 0.00 0.00 53 1009.2
20260507204104 77 178 0.0 4.3 0.00 0.00 0.00 53 1009.3
20260507203559 77 178 0.0 5.2 0.00 0.00 0.00 53 1009.3
20260507203054 79 61 0.0 1.7 0.00 0.00 0.00 51 1009.3
20260507202610 79 55 0.0 4.3 0.00 0.00 0.00 52 1009.3
20260507202104 78 58 1.7 4.3 0.00 0.00 0.00 53 1009.3
20260507201559 78 123 0.0 0.9 0.00 0.00 0.00 51 1009.3
20260507201054 78 123 0.0 0.9 0.00 0.00 0.00 50 1009.5
20260507200609 78 123 0.0 4.3 0.00 0.00 0.00 50 1009.5
20260507200212 79 123 0.9 4.3 0.00 0.00 0.00 49 1009.5
20260507195555 80 105 0.0 3.5 0.00 0.00 0.00 49 1009.8
20260507195109 79 132 0.0 4.3 0.00 0.00 0.00 49 1009.8
20260507194603 79 68 0.0 2.6 0.00 0.00 0.00 50 1009.8
20260507194147 79 68 0.0 2.6 0.00 0.00 0.00 50 1009.8
20260507193558 79 69 0.0 0.9 0.00 0.00 0.00 51 1009.8
20260507193112 78 67 0.0 1.7 0.00 0.00 0.00 54 1009.8
20260507192606 78 67 0.0 1.7 0.00 0.00 0.00 53 1010.0
20260507192122 78 79 0.0 4.3 0.00 0.00 0.00 52 1010.0
20260507191554 78 81 1.7 4.3 0.00 0.00 0.00 53 1010.0
20260507191108 78 67 0.0 4.3 0.00 0.00 0.00 51 1010.1
20260507190603 78 65 0.0 5.2 0.00 0.00 0.00 52 1010.1
20260507190118 77 74 1.7 5.2 0.00 0.00 0.00 53 1010.1
20260507185550 77 69 0.9 5.2 0.00 0.00 0.00 53 1010.3
20260507185105 77 69 1.7 5.2 0.00 0.00 0.00 53 1010.3
20260507184559 77 62 0.9 4.3 0.00 0.00 0.00 52 1010.3
20260507184130 76 64 0.0 4.3 0.00 0.00 0.00 54 1010.3
20260507183610 76 79 0.0 6.1 0.00 0.00 0.00 55 1010.3
20260507183050 76 71 0.0 5.2 0.00 0.00 0.00 53 1010.3
20260507182624 76 84 0.9 4.3 0.00 0.00 0.00 55 1010.3
20260507182126 75 82 0.9 5.2 0.00 0.00 0.00 55 1010.3
20260507181600 75 86 2.6 5.2 0.00 0.00 0.00 57 1010.3
20260507181055 75 51 0.0 4.3 0.00 0.00 0.00 57 1010.3
20260507180553 74 51 1.7 4.3 0.00 0.00 0.00 59 1010.3
20260507180051 74 71 0.0 0.0 0.00 0.00 0.00 58 1010.3
20260507175606 73 82 0.0 5.2 0.00 0.00 0.00 57 1010.3
20260507175102 73 81 0.9 5.2 0.00 0.00 0.00 60 1010.3
20260507174558 72 49 0.0 2.6 0.00 0.00 0.00 60 1010.3
20260507174053 72 40 0.0 2.6 0.00 0.00 0.00 61 1010.4
20260507173608 72 17 0.0 2.6 0.00 0.00 0.00 62 1010.4
20260507173103 72 30 0.0 4.3 0.00 0.00 0.00 60 1010.4
20260507172557 72 32 0.0 4.3 0.00 0.00 0.00 62 1010.4
20260507172122 71 49 0.0 1.7 0.00 0.00 0.00 61 1010.4
20260507171559 70 50 0.0 1.7 0.00 0.00 0.00 60 1010.4
20260507171054 70 53 0.0 3.5 0.00 0.00 0.00 62 1010.4
20260507170608 70 53 0.0 3.5 0.00 0.00 0.00 64 1010.4
20260507165558 70 70 0.0 1.7 0.00 0.00 0.00 62 1010.5
20260507165052 69 70 0.0 3.5 0.00 0.00 0.00 64 1010.5
20260507164555 69 69 0.0 3.5 0.00 0.00 0.00 64 1010.5
20260507164146 68 85 0.0 3.5 0.00 0.00 0.00 63 1010.7
20260507163617 69 84 0.9 3.5 0.00 0.00 0.00 63 1010.7
20260507163053 69 85 0.0 5.2 0.00 0.00 0.00 64 1010.7
20260507162651 68 86 0.9 5.2 0.00 0.00 0.00 66 1010.7
20260507162051 68 34 0.0 0.9 0.00 0.00 0.00 66 1010.7
20260507161550 67 34 0.0 1.7 0.00 0.00 0.00 67 1010.7
20260507161105 67 109 0.0 1.7 0.00 0.00 0.00 69 1010.8
20260507160601 66 63 0.0 4.3 0.00 0.00 0.00 68 1010.8
20260507160117 66 64 0.0 4.3 0.00 0.00 0.00 70 1010.8
20260507155551 66 62 0.0 0.0 0.00 0.00 0.00 71 1010.8
20260507155107 65 62 0.0 2.6 0.00 0.00 0.00 73 1010.8
20260507154602 64 62 0.0 2.6 0.00 0.00 0.00 74 1010.8
20260507154118 63 90 0.0 2.6 0.00 0.00 0.00 76 1010.7
20260507153557 63 81 0.0 0.0 0.00 0.00 0.00 77 1010.7
20260507153052 62 81 0.0 2.6 0.00 0.00 0.00 78 1010.7
20260507152717 62 81 0.0 2.6 0.00 0.00 0.00 80 1010.9
20260507152123 61 81 0.0 0.0 0.00 0.00 0.00 82 1010.9
20260507151556 61 81 0.0 0.0 0.00 0.00 0.00 82 1010.9
20260507151052 60 81 0.0 0.0 0.00 0.00 0.00 84 1010.9
20260507150607 60 81 0.0 0.0 0.00 0.00 0.00 85 1010.9
20260507150046 59 81 0.0 0.9 0.00 0.00 0.00 87 1010.9
20260507145619 59 277 0.0 0.9 0.00 0.00 0.00 88 1010.8
20260507145057 58 277 0.0 0.0 0.00 0.00 0.00 89 1010.8
20260507144608 58 277 0.0 0.0 0.00 0.00 0.00 90 1010.8
20260507144110 58 277 0.0 0.9 0.00 0.00 0.00 90 1010.7
20260507143603 57 277 0.0 0.9 0.00 0.00 0.00 91 1010.7
20260507143058 57 277 0.0 0.0 0.00 0.00 0.00 91 1010.7
20260507142554 57 277 0.0 0.0 0.00 0.00 0.00 91 1010.4
20260507142108 56 277 0.0 0.0 0.00 0.00 0.00 91 1010.4
20260507141604 56 277 0.0 0.0 0.00 0.00 0.00 92 1010.4
20260507141058 55 277 0.0 0.0 0.00 0.00 0.00 92 1010.4
20260507140553 55 277 0.0 0.0 0.00 0.00 0.00 91 1010.4
20260507140128 55 277 0.0 0.0 0.00 0.00 0.00 91 1010.4
20260507135603 54 277 0.0 0.0 0.00 0.00 0.00 91 1010.3
20260507135133 54 277 0.0 0.0 0.00 0.00 0.00 91 1010.3
20260507134631 54 277 0.0 0.0 0.00 0.00 0.00 91 1010.3
20260507134121 54 277 0.0 0.0 0.00 0.00 0.00 91 1010.2
20260507133557 54 277 0.0 0.0 0.00 0.00 0.00 91 1010.2
20260507133056 54 277 0.0 0.0 0.00 0.00 0.00 91 1010.2
20260507132552 53 277 0.0 0.0 0.00 0.00 0.00 90 1010.1
20260507132107 53 277 0.0 0.0 0.00 0.00 0.00 90 1010.1
20260507131603 53 277 0.0 0.0 0.00 0.00 0.00 90 1010.1
20260507131059 53 277 0.0 0.0 0.00 0.00 0.00 90 1010.0
20260507130611 53 277 0.0 0.0 0.00 0.00 0.00 90 1010.0
20260507130058 53 277 0.0 0.0 0.00 0.00 0.00 90 1010.0
20260507125721 53 277 0.0 0.0 0.00 0.00 0.00 90 1009.8
20260507125059 53 277 0.0 0.0 0.00 0.00 0.00 90 1009.8
20260507124615 53 277 0.0 0.0 0.00 0.00 0.00 89 1009.8
20260507124109 53 277 0.0 0.0 0.00 0.00 0.00 89 1009.9
20260507123601 54 277 0.0 0.0 0.00 0.00 0.00 89 1009.9
20260507123211 54 277 0.0 0.0 0.00 0.00 0.00 89 1009.9
20260507122615 54 277 0.0 0.0 0.00 0.00 0.00 89 1009.8
20260507122059 54 277 0.0 0.0 0.00 0.00 0.00 89 1009.8
20260507121554 54 277 0.0 0.0 0.00 0.00 0.00 89 1009.8
20260507121128 54 277 0.0 0.0 0.00 0.00 0.00 89 1009.9
20260507120601 54 277 0.0 0.0 0.00 0.00 0.00 89 1009.9
20260507120117 54 277 0.0 0.0 0.00 0.00 0.00 89 1009.9
20260507115610 54 277 0.0 0.0 0.00 0.00 0.00 89 1010.0
20260507115125 54 277 0.0 0.0 0.00 0.00 0.00 89 1010.0
20260507114558 54 277 0.0 0.0 0.00 0.00 0.00 88 1010.0
20260507114112 54 277 0.0 0.0 0.00 0.00 0.00 88 1009.9
20260507113602 54 277 0.0 0.0 0.00 0.00 0.00 88 1009.9
20260507113145 54 277 0.0 0.0 0.00 0.00 0.00 88 1009.9
20260507112610 54 277 0.0 0.0 0.00 0.00 0.00 88 1009.9
20260507112116 54 277 0.0 0.0 0.00 0.00 0.00 88 1009.9
20260507111550 54 277 0.0 0.0 0.00 0.00 0.00 88 1009.9
20260507111125 54 277 0.0 0.0 0.00 0.00 0.00 88 1010.2
20260507110558 54 277 0.0 0.0 0.00 0.00 0.00 88 1010.2
20260507110112 54 277 0.0 0.0 0.00 0.00 0.00 87 1010.2
20260507105600 54 277 0.0 0.0 0.00 0.00 0.00 87 1010.3
20260507105056 54 277 0.0 0.0 0.00 0.00 0.00 87 1010.3
20260507104610 54 277 0.0 0.0 0.00 0.00 0.00 87 1010.3
20260507104207 54 277 0.0 0.0 0.00 0.00 0.00 87 1010.3
20260507103553 54 277 0.0 0.0 0.00 0.00 0.00 87 1010.3
20260507103128 54 277 0.0 0.0 0.00 0.00 0.00 87 1010.3
20260507102623 54 277 0.0 0.0 0.00 0.00 0.00 86 1010.3
20260507102057 54 277 0.0 0.0 0.00 0.00 0.00 86 1010.3
20260507101552 55 277 0.0 0.0 0.00 0.00 0.00 86 1010.3
20260507101051 55 277 0.0 0.0 0.00 0.00 0.00 86 1010.4
20260507100605 55 277 0.0 0.0 0.00 0.00 0.00 86 1010.4
20260507100104 55 277 0.0 0.0 0.00 0.00 0.00 86 1010.4
20260507095557 55 277 0.0 0.0 0.00 0.00 0.00 86 1010.4
20260507095117 55 277 0.0 0.0 0.00 0.00 0.00 86 1010.4
20260507094616 55 277 0.0 0.0 0.00 0.00 0.00 85 1010.4
20260507094110 55 277 0.0 0.0 0.00 0.00 0.00 85 1010.6
20260507093604 55 277 0.0 0.0 0.00 0.00 0.00 85 1010.6
20260507093057 55 277 0.0 0.0 0.00 0.00 0.00 85 1010.6
20260507092551 55 277 0.0 0.0 0.00 0.00 0.00 85 1010.8
20260507092121 55 277 0.0 0.0 0.00 0.00 0.00 85 1010.8
20260507091600 55 277 0.0 0.0 0.00 0.00 0.00 85 1010.8
20260507091055 55 277 0.0 0.0 0.00 0.00 0.00 85 1010.9
20260507090549 55 277 0.0 0.0 0.00 0.00 0.00 85 1010.9
20260507090108 55 277 0.0 0.0 0.00 0.00 0.00 85 1010.9
20260507085602 55 277 0.0 0.0 0.00 0.00 0.00 84 1010.9
20260507085057 55 277 0.0 0.0 0.00 0.00 0.00 84 1010.9
20260507084551 55 277 0.0 0.0 0.00 0.00 0.00 84 1010.9
20260507084106 55 277 0.0 0.0 0.00 0.00 0.00 84 1011.0
20260507083602 56 277 0.0 0.0 0.00 0.00 0.00 83 1011.0
20260507083055 56 277 0.0 0.0 0.00 0.00 0.00 83 1011.0
20260507082553 56 277 0.0 0.0 0.00 0.00 0.00 82 1011.1
20260507082153 56 277 0.0 0.0 0.00 0.00 0.00 82 1011.1
20260507081618 56 277 0.0 0.0 0.00 0.00 0.00 81 1011.1
20260507081118 56 277 0.0 0.0 0.00 0.00 0.00 81 1011.2
20260507080612 57 277 0.0 0.0 0.00 0.00 0.00 81 1011.2
20260507080108 57 277 0.0 0.0 0.00 0.00 0.00 80 1011.2
20260507075607 57 277 0.0 0.0 0.00 0.00 0.00 80 1011.2
20260507075103 57 277 0.0 0.0 0.00 0.00 0.00 80 1011.2
20260507074558 57 277 0.0 0.0 0.00 0.00 0.00 80 1011.2
20260507074053 57 277 0.0 0.0 0.00 0.00 0.00 80 1011.3
20260507073612 58 277 0.0 3.5 0.00 0.00 0.00 80 1011.3
20260507073106 58 277 0.9 3.5 0.00 0.00 0.00 80 1011.3
20260507072619 58 276 0.0 6.1 0.00 0.00 0.00 80 1011.4
20260507072057 58 274 0.0 8.7 0.00 0.00 0.00 80 1011.4
20260507071611 58 251 1.7 8.7 0.00 0.00 0.00 80 1011.4
20260507071117 58 267 0.0 5.2 0.00 0.00 0.00 80 1011.4
20260507070618 58 256 0.9 8.7 0.00 0.00 0.00 81 1011.4
20260507070111 58 258 0.9 8.7 0.00 0.00 0.00 81 1011.4
20260507065603 58 247 1.7 5.2 0.00 0.00 0.00 82 1011.3
20260507065105 58 284 0.9 5.2 0.00 0.00 0.00 83 1011.3
20260507064601 58 237 0.9 5.2 0.00 0.00 0.00 83 1011.3
20260507064055 58 277 0.0 5.2 0.00 0.00 0.00 84 1011.4
20260507063631 58 269 0.9 5.2 0.00 0.00 0.00 84 1011.4
20260507063125 58 283 0.9 6.1 0.00 0.00 0.00 85 1011.4
20260507062638 57 208 0.0 6.1 0.00 0.00 0.00 85 1011.4
20260507062117 57 256 0.9 2.6 0.00 0.00 0.00 86 1011.4
20260507061559 57 255 0.0 1.7 0.00 0.00 0.00 86 1011.4
20260507061102 57 255 0.0 3.5 0.00 0.00 0.00 86 1011.4
20260507060557 57 255 0.0 3.5 0.00 0.00 0.00 87 1011.4
20260507060052 57 235 0.0 3.5 0.00 0.00 0.00 87 1011.4
20260507055607 57 248 0.0 0.9 0.00 0.00 0.00 87 1011.4
20260507055103 57 248 0.0 0.9 0.00 0.00 0.00 86 1011.4
20260507054557 57 272 0.0 3.5 0.00 0.00 0.00 86 1011.4
20260507054056 57 272 0.9 3.5 0.00 0.00 0.00 86 1011.6
20260507053554 57 267 0.0 1.7 0.00 0.00 0.00 85 1011.6
20260507053108 57 267 0.0 1.7 0.00 0.00 0.00 85 1011.6
20260507052556 57 267 0.0 1.7 0.00 0.00 0.00 84 1011.6
20260507052102 57 267 0.0 1.7 0.00 0.00 0.00 84 1011.6
20260507051605 57 267 0.0 1.7 0.00 0.00 0.00 84 1011.6
20260507051101 57 267 0.0 0.0 0.00 0.00 0.00 83 1011.5
20260507050555 57 267 0.0 0.9 0.00 0.00 0.00 81 1011.5
20260507050051 57 267 0.0 0.9 0.00 0.00 0.00 81 1011.5
20260507045603 57 267 0.0 0.0 0.00 0.00 0.00 80 1011.4
20260507045058 58 267 0.0 0.0 0.00 0.00 0.00 80 1011.4
20260507044554 58 267 0.0 0.0 0.00 0.00 0.00 80 1011.4
20260507044049 58 267 0.0 0.0 0.00 0.00 0.00 79 1011.4
20260507043633 58 267 0.0 0.0 0.00 0.00 0.00 79 1011.4
20260507043116 58 267 0.0 0.0 0.00 0.00 0.00 78 1011.4
20260507042609 58 267 0.0 0.0 0.00 0.00 0.00 78 1011.4
20260507042105 58 267 0.0 0.0 0.00 0.00 0.00 77 1011.4
20260507041620 59 267 0.0 0.0 0.00 0.00 0.00 77 1011.4
20260507041054 59 267 0.0 0.0 0.00 0.00 0.00 77 1011.2
20260507040610 59 267 0.0 0.0 0.00 0.00 0.00 77 1011.2
20260507040048 59 267 0.0 0.9 0.00 0.00 0.00 76 1011.2
20260507035607 59 267 0.0 0.9 0.00 0.00 0.00 76 1011.0
20260507035118 59 267 0.0 0.0 0.00 0.00 0.00 76 1011.0
20260507034629 60 267 0.0 1.7 0.00 0.00 0.00 76 1011.0
20260507034144 60 267 0.0 1.7 0.00 0.00 0.00 76 1010.8